Powrót do katalogu

CHINASAT 16

AktywnyŁącznośćGEO
NORAD 42662·PAYLOAD·🇨🇳 China

Wystrzelony Apr 12, 2017 z Xichang Satellite Launch Center

Loading…

TLE

ŚwieżeSource: Space-Track

Epoka: Sep 14, 2026, 16:02 UTC

1 42662U 17018A   26257.66835476 -.00000360  00000-0  00000-0 0  9994
2 42662   0.0772  92.8907 0006805 133.7509 118.1713  1.00275743 34648

Śledź CHINASAT 16 w czasie rzeczywistym z AllMySat

Download on the App Store